Regional Weather Roundup
Issued by NWS Sioux Falls, SD

Home | Current Version | Previous Version | Graphics & Text | Print | Product List | Glossary Off
Versions: 1 2 3 4 5 6 7 8 9 10 11 12 13 14 15 16 17 18 19 20 21 22 23 24 25 26 27 28 29 30 31 32 33 34 35 36 37 38 39 40 41 42 43 44 45 46 47 48 49 50

000
ASUS43 KFSD 280402
RWRFSD

WEATHER ROUNDUP FOR SE SOUTH DAKOTA/SW MINNESOTA/NW IOWA
NATIONAL WEATHER SERVICE SIOUX FALLS SD
1000 PM CST SAT DEC 27 2014

NOTE: "FAIR" INDICATES FEW OR NO CLOUDS BELOW 12,000 FEET WITH NO
SIGNIFICANT WEATHER AND OR OBSTRUCTIONS TO VISIBILITY.


SDZ038>040-050-052>070-280500-
SOUTHEAST SOUTH DAKOTA

CITY           SKY/WX    TMP DP  RH WIND       PRES   REMARKS
CHAMBERLAIN    NOT AVBL
HURON          CLEAR     13   9  84 S7        30.08F WCI   3
MADISON        FAIR      10  10 100 SW10      30.08S WCI  -3
MITCHELL       PTCLDY    12   9  87 SW6       30.11F WCI   3
SIOUX FALLS    PTCLDY    10   8  92 S6        30.12F WCI   0
WINNER         FAIR      19  10  68 SW10      30.08F WCI   7
YANKTON        FAIR      16  10  79 SW5       30.16F WCI   9
$$

MNZ071-072-080-081-089-090-097-098-280500-
SOUTHWEST MINNESOTA

CITY           SKY/WX    TMP DP  RH WIND       PRES   REMARKS
FAIRMONT       FAIR      12   7  79 W13       30.13S WCI  -3
JACKSON        CLEAR     14  10  85 W8        30.13S WCI   3
LUVERNE        PTCLDY     5   1  85 CALM      30.14S FOG
MARSHALL       CLEAR     14   7  73 SW15      30.09S WCI  -1
MONTEVIDEO     CLOUDY    16  14  93 W8        30.11S WCI   5
PIPESTONE      PTCLDY     7   3  85 SW3       30.09F
REDWOOD FALLS  CLEAR     11   6  81 W6        30.12S WCI   1
TRACY          CLEAR     13   9  84 SW14      30.10F WCI  -3
WINDOM         CLEAR     10   9  92 CALM      30.12S
WORTHINGTON    CLEAR      9 N/A N/A SW6       30.12S WCI  -1
$$

IAZ001>003-012>014-020>022-031-032-NEZ013-014-SDZ071-280500-
NORTHWEST IOWA

CITY           SKY/WX    TMP DP  RH WIND       PRES   REMARKS
CHEROKEE       CLEAR     10   9  95 S3        30.18S
DENISON        CLEAR     14  12  92 CALM      30.18F
ESTHERVILLE    CLEAR      9   6  88 SW9       30.15S WCI  -4
LE MARS        CLEAR      9   7  92 CALM      30.18S
ORANGE CITY    CLEAR     10   7  85 CALM      30.15S
SIOUX CITY     CLEAR      8   4  83 SE5       30.19S WCI   0
SPENCER        CLEAR      7   3  84 W9        30.16S WCI  -7
$$

ABBREVIATIONS USED IN REMARKS
   TC - TEMPERATURE IN CELSIUS
  WCI - WIND CHILL INDEX
   HX - HEAT INDEX
  VSB - VISIBILITY



USA.gov is the U.S. government's official web portal to all federal, state and local government web resources and services.